SCP
0 0 0 0 0 0 0 0 0 0 0 0 0 0 0 0 0 0 0 0 0 -0 0 -0 0 0 0 0 0 0 0 0 0 0 0 0 0 0 0 0 0 0 0 0
0 0 0 0 0 0 0 0 0 0 0 0 0 0 0 0 0 0 0 0 0 0 0 0 0 0 0 0 0 0 0 0 0 0 0 0 0 0 0 0 0 0 0 0
0 0 0 0 0 0 0 0 0 0 0 0 0 0 0 0 0 0 0 0 0 0 0 0 0 0 0 0 0 0 0 0 0 0 0 0 0 0 0 0 0 0 0 0
0 0 0 0 0 0 0 0 0 0 0 0 0 0 0 0 0 0 0 0 0 0 0 0 0 0 0 0 0 0 0 0 0 0 -0 -0 -0 0 0 0 0 0 0 0
0 0 0 0 0 0 0 0 0 0 0 0 0 0 0 0 0 0 0 0 0 0 0 0 0 0 0 0 0 0 0 0 0 0 -0 -0 -0 0 0 0 0 0 0 0
0 0 0 0 0 0 0 0 0 0 0 0 0 0 0 0 0 0 0 0 0 0 0 0 0 0 0 0 0 0 0 -0 -0 -0 0 0 0 0 0 0 0 0 0 0
0 0 0 0 0 0 0 0 0 0 0 0 0 0 0 0 0 0 0 0 0 0 0 0 0 0 0 0 0 0 0 0 0 0 0 0 0 0 0 0 0 0 0 0
0 0 0 0 0 0 0 0 0 0 0 0 0 0 0 0 0 0 0 0 0 0 0 0 0 0 0 0 0 0 0 0 0 0 0 0 0 0 0 0 0 0 0 0
0 0 0 0 0 0 0 0 0 0 0 0 0 0 0 0 0 0 0 0 0 0 0 0 0 0 0 0 0 0 0 0 0 0 0 0 0 0 0 0 0 0 0 0
0 0 0 0 0 0 0 0 0 0 0 0 0 0 0 0 0 0 0 0 0 0 0 0 0 0 0 0 0 0 0 0 0 0 0 0 0 0 0 0 0 0 0 0
0 0 0 0 0 0 0 0 0 0 0 0 0 0 0 0 0 0 0 0 0 0 0 0 0 0 0 0 0 0 0 0 0 0 0 0 0 0 0 0 0 0 0 0
0 0 0 0 0 0 0 0 0 0 0 0 0 0 0 0 0 0 0 0 0 0 0 0 0 0 0 0 0 0 0 0 0 0 0 0 0 0 0 0 0 0 -0 0
0 0 0 0 0 0 0 0 0 0 0 0 0 0 0 0 0 0 0 0 0 0 0 0 0 0 0 0 0 0 0 0 0 0 0 0 0 0 0 0 0 0 0 0
-0 -0 -0 -0 -0 0 0 0 0 0 0 0 0 0 0 0 0 0 0 0 0 0 0 0 0 0 0 0 0 0 0 0 0 0 0 0 0 0 0 0 0 0 0 0
-0 -0 -0 0 0 0 0 0 0 0 0 0 0 0 0 0 0 0 0 0 0 0 0 0 0 0 0 0 0 0 0 0 0 0 0 0 0 0 0 0 0 0 0 0
-0 0 0 0 0 0 0 0 0 0 0 0 0 0 0 0 0 0 0 0 0 0 0 0 0 0 0 0 0 0 0 0 0 0 0 0 0 0 0 0 0 0 0 0
-0 -0 -0 -0 -0 -0 -0 0 0 0 0 0 0 0 0 0 0 0 0 0 0 0 0 0 0 0 0 0 0 0 0 0 0 0 0 0 0 0 0 0 0 0 0 0
-0 -0 -0 0 -0 -0 0 0 -0 -0 0 0 0 0 0 0 0 0 0 0 0 0 0 0 0 0 0 0 0 0 0 0 0 0 0 0 0 0 0 0 0 0 0 0
-0 -0 0 0 0 0 0 0 0 0 0 0 -0 0 0 0 0 0 0 0 0 0 0 0 0 0 0 0 0 0 0 0 0 0 0 0 0 0 0 0 0 0 -0 0
0 0 -0 -0 -0 -0 0 0 0 -0 0 0 0 0 0 0 0 0 0 0 0 0 0 0 0 0 0 0 0 0 0 0 0 0 0 0 -0 0 0 0 0 0 0 0
-0 -0 0 0 0 0 0 0 0 0 0 0 0 0 -0 -0 0 0 0 0 0 0 0 0 0 0 0 0 0 0 0 0 0 0 -0 -0 0 0 0 0 0 0 0 0
0 0 0 0 0 0 0 0 0 0 0 0 0 0 0 0 -0 -0 0 0 0 0 0 0 0 0 0 0 0 0 -0 -0 -0 0 0 -0 -0 0 0 0 0 0 0 0
0 0 0 0 0 0 0 0 0 0 0 0 0 0 0 0 0 0 0 0 0 0 0 0 0 0 0 0 -0 -0 -0 0 0 -0 -0 -0 0 0 0 0 0 0 0 0
0 0 0 0 0 0 0 0 0 0 0 0 0 0 0 0 0 0 0 0 0 0 0 0 0 0 0 -0 -0 -0 0 0 -0 -0 -0 -0 0 0 0 0 0 0 0 0
0 0 0 0 0 0 0 0 0 0 0 0 0 0 0 0 0 0 0 0 0 0 0 0 0 0 -0 -0 -0 0 0 0 -0 -0 -0 0 0 0 0 0 0 0 0 0
0 0 0 0 0 0 0 0 0 0 0 0 0 0 0 0 0 0 0 0 0 0 0 0 0 0 0 0 0 0 0 -0 -0 -0 -0 0 0 0 0 0 0 0 0 0
0 0 0 0 -0 0 0 0 0 0 0 0 0 0 0 0 0 0 0 0 0 0 0 0 0 0 0 0 0 0 0 0 -0 -0 -0 0 0 0 0 0 0 0 0 0
Wind_Speed_500mb
13 11 10 13 14 16 15 15 15 20 25 29 34 37 56 55 49 43 35 28 29 21 14 18 12 4 4 4 3 18 35 37 37 40 43 43 44 42 41 37 34 35 29 33
6 8 12 16 13 16 14 15 20 17 18 9 45 26 47 55 49 39 45 34 26 14 13 15 8 1 4 11 17 26 35 42 46 51 52 49 45 41 38 33 27 24 29 25
9 6 10 14 16 12 7 5 10 9 6 6 22 34 35 37 32 25 37 25 20 17 8 3 10 15 22 26 30 34 38 43 47 53 56 55 54 55 54 52 50 44 38 28
7 7 19 9 12 11 9 4 18 16 12 32 41 55 49 43 38 34 32 27 20 10 2 10 16 22 29 35 41 48 53 58 63 68 69 69 66 65 64 61 57 54 55 54
9 9 11 13 7 11 9 6 11 24 20 38 56 53 31 29 28 24 16 13 7 9 16 21 27 34 43 51 54 52 51 51 51 56 64 66 65 58 54 55 54 57 58 58
4 9 17 13 34 47 10 9 16 35 20 29 24 9 4 28 21 17 9 5 13 17 18 27 38 45 51 51 48 50 56 61 62 62 59 59 60 59 58 56 54 53 53 53
16 18 13 10 19 31 21 15 26 42 35 28 13 20 32 20 20 16 15 9 3 14 23 28 35 38 46 49 47 51 55 55 54 53 56 58 59 64 62 63 61 59 53 49
6 12 26 18 14 21 18 38 42 44 45 45 43 39 36 28 21 15 11 4 8 14 19 26 35 38 39 46 50 52 53 53 57 64 64 65 67 65 61 56 55 55 53 50
15 11 10 24 29 39 68 67 52 47 36 37 37 32 23 20 13 12 13 18 22 29 34 34 32 35 40 44 48 47 48 57 63 64 59 55 57 60 59 57 56 56 54 49
4 5 6 29 36 62 67 60 46 38 34 23 29 19 14 8 8 12 21 30 34 39 40 35 33 35 39 45 47 53 60 63 60 59 58 57 57 53 53 54 55 54 51 50
5 10 12 18 23 27 49 42 42 31 23 24 16 12 7 3 7 14 21 28 33 38 36 33 32 36 39 42 49 53 54 52 54 57 56 58 55 52 50 49 47 50 51 52
6 6 9 28 43 34 38 44 38 34 29 18 11 10 6 1 6 13 20 26 34 35 25 25 31 38 41 42 45 46 51 52 53 54 54 55 57 63 58 55 49 45 45 47
13 14 11 28 37 38 36 29 25 22 13 14 16 10 3 4 9 16 24 30 34 25 23 27 35 41 39 38 41 45 50 52 51 51 53 55 55 59 69 64 57 50 43 36
38 44 35 36 38 27 19 15 21 14 15 21 14 9 8 11 15 22 27 34 26 22 22 32 39 41 43 43 44 45 48 49 51 54 55 55 55 56 58 63 66 63 53 46
40 28 33 44 37 27 25 17 23 35 25 19 12 13 15 17 20 23 27 23 21 22 30 36 41 44 51 49 45 49 49 49 50 54 56 57 56 56 57 59 63 67 65 56
41 33 55 45 41 38 34 31 34 28 17 16 17 19 19 20 21 19 18 21 21 27 32 43 40 42 50 50 48 51 46 46 48 53 56 59 60 61 62 63 65 65 64 60
39 59 57 50 43 35 32 26 22 18 17 20 19 18 17 18 15 19 19 22 20 28 34 42 38 43 47 47 49 49 50 51 51 52 57 60 63 64 65 67 67 64 61 57
54 45 37 35 37 33 30 28 30 27 25 24 18 17 16 16 19 19 19 22 26 33 36 44 41 43 50 52 52 47 49 52 54 59 60 65 67 63 63 65 65 62 61 58
43 43 41 38 35 38 42 46 40 34 26 26 22 24 23 18 17 17 18 25 30 34 47 51 53 48 53 54 57 47 47 54 59 60 62 68 66 64 64 61 60 58 55 53
45 43 40 35 33 40 43 35 31 29 30 31 29 31 32 33 26 20 22 27 32 24 44 45 51 56 59 58 62 54 53 57 59 62 66 72 68 68 66 60 56 54 51 50
37 33 30 26 23 23 20 21 23 21 20 26 31 34 40 42 43 41 39 39 40 32 38 47 55 65 63 60 63 57 57 61 63 66 71 73 71 70 66 62 57 55 53 50
25 22 17 11 7 6 7 6 13 18 18 21 28 31 32 34 37 40 43 43 40 41 43 48 56 68 60 66 62 57 60 62 67 69 73 70 71 69 65 60 57 55 52 48
17 13 10 4 5 2 5 6 7 20 20 13 18 20 22 28 35 41 48 53 51 41 41 47 57 65 60 69 62 59 61 63 69 74 71 72 71 67 62 58 57 54 51 48
12 7 6 13 7 9 10 3 8 21 16 8 9 15 26 28 31 34 39 44 48 49 44 49 62 57 60 66 60 60 62 64 72 76 72 74 74 68 62 59 58 56 52 48
2 5 6 10 10 8 3 6 12 15 10 7 12 19 21 22 26 30 35 39 45 54 48 50 60 56 60 61 59 61 63 66 75 82 76 77 79 76 68 63 61 59 56 49
10 9 7 10 18 15 10 12 3 13 9 14 14 16 18 21 25 28 26 33 44 56 48 55 57 56 59 61 62 64 66 69 77 86 82 78 82 81 74 67 67 67 61 51
13 13 16 11 23 12 5 5 6 11 6 8 14 15 16 22 22 24 29 36 46 53 48 52 55 56 59 65 65 67 69 73 75 84 89 83 84 85 78 70 70 70 63 51
Wind_Direction_500mb
213 203 227 228 228 205 192 206 173 227 224 239 211 209 206 197 194 185 194 198 199 189 218 191 210 166 144 137 189 291 299 295 297 293 294 301 304 304 305 308 303 299 300 308
249 228 244 254 243 239 234 221 231 267 269 326 258 203 162 187 195 195 203 194 223 247 153 160 153 190 310 299 296 293 296 291 292 293 294 297 294 299 302 301 301 301 288 277
245 249 314 287 216 214 231 240 170 170 200 132 83 102 138 180 165 174 217 195 143 149 174 268 312 313 305 307 303 295 292 297 299 298 296 295 297 296 294 296 294 291 288 290
211 114 247 229 212 197 211 229 117 92 105 105 111 110 109 120 126 126 136 141 136 136 278 307 307 309 310 303 301 301 301 300 300 299 299 299 298 294 293 294 293 290 285 283
169 207 298 290 253 155 147 159 148 128 138 125 117 106 84 117 128 129 122 93 50 340 322 314 309 311 314 313 312 313 313 311 311 310 310 308 308 308 306 300 297 292 287 283
119 184 217 211 234 252 110 208 179 140 140 150 162 92 180 120 109 95 77 10 328 314 310 313 318 316 314 313 314 315 317 316 314 311 311 313 312 312 309 310 308 305 297 292
203 233 274 246 148 154 171 217 165 141 138 122 101 126 131 109 94 92 86 84 341 297 306 312 316 319 318 318 319 320 319 318 320 319 318 317 314 310 310 308 307 303 303 301
164 219 249 204 165 167 170 137 139 125 118 110 113 120 116 108 105 106 109 63 347 334 329 324 320 322 322 323 323 322 320 320 320 317 316 315 310 305 308 306 304 304 308 306
184 218 257 284 243 163 152 136 127 120 118 122 113 109 102 96 81 56 15 346 337 331 326 325 326 328 331 329 323 322 320 317 315 314 314 315 312 310 306 303 301 302 302 299
305 286 103 84 112 133 132 126 125 125 125 132 119 112 100 80 36 347 333 326 324 324 327 330 335 334 330 325 327 324 320 316 318 321 323 325 321 315 309 308 306 303 300 294
302 9 63 92 100 119 114 118 116 117 124 121 126 110 101 61 325 328 327 327 329 330 326 332 333 328 330 328 326 326 327 333 334 331 327 325 324 321 314 307 302 299 294 290
208 167 153 142 136 142 127 120 125 123 113 106 111 137 150 117 338 331 331 330 328 329 352 343 336 332 323 323 328 333 337 336 335 334 332 326 325 325 325 322 316 304 293 283
160 128 80 116 125 133 124 113 118 115 113 146 143 152 92 5 348 337 331 329 335 359 352 339 334 329 328 333 336 339 332 332 333 332 334 334 330 326 324 327 329 332 327 313
143 141 140 146 143 132 115 98 116 136 150 142 123 76 39 359 342 337 339 340 354 1 343 336 333 333 340 340 335 331 331 337 338 336 333 329 329 329 328 324 322 324 330 330
159 158 156 142 127 116 110 132 127 124 119 104 65 23 2 357 351 347 341 359 4 352 340 334 333 336 334 334 326 324 325 328 333 333 332 329 329 326 327 328 326 323 323 322
152 120 127 122 120 116 114 116 117 108 87 57 36 21 6 352 341 338 11 10 5 350 336 338 339 333 333 340 342 340 339 335 333 331 331 331 331 327 325 324 321 319 317 316
116 112 114 109 110 105 103 99 86 75 58 43 26 6 350 344 354 24 18 10 3 346 335 331 338 339 337 346 345 343 343 339 337 336 338 337 333 328 324 321 320 317 311 309
130 122 115 116 111 103 91 78 64 56 55 41 26 14 3 9 35 22 11 359 350 347 5 11 1 355 354 352 348 344 342 340 341 339 335 335 333 328 325 322 319 315 311 309
117 118 118 113 108 94 84 70 64 58 56 36 36 33 30 34 31 20 12 357 353 21 28 18 11 358 354 353 351 345 341 343 343 342 341 340 335 332 329 323 319 314 312 311
118 116 113 108 101 80 79 71 71 66 57 40 38 41 41 31 24 23 7 3 1 11 24 8 7 4 360 353 350 349 351 345 344 343 342 343 340 336 334 329 324 319 315 312
123 118 112 101 91 79 78 65 52 59 60 45 41 47 44 41 43 42 34 26 17 10 357 359 1 359 359 351 348 351 353 349 349 348 346 345 343 341 338 335 330 326 321 316
125 135 133 106 99 75 58 46 18 28 39 37 33 39 38 38 41 37 29 21 15 6 355 355 358 356 356 351 352 352 353 352 352 351 350 351 348 344 342 338 334 331 327 321
132 119 134 325 0 123 354 344 2 8 8 12 16 24 32 30 27 25 23 20 14 3 356 356 354 353 355 354 356 357 357 357 356 356 357 357 354 351 346 343 341 338 334 328
126 116 93 45 27 290 315 315 39 10 337 358 3 25 30 23 19 19 20 18 10 7 359 357 353 354 357 357 360 2 2 2 2 2 2 1 1 359 357 353 349 346 341 335
134 314 19 14 351 9 317 182 31 355 5 75 41 35 33 24 21 21 17 11 5 4 2 358 357 1 4 5 7 8 8 8 9 9 7 6 5 6 6 2 359 355 351 348
332 324 351 5 1 346 336 208 324 22 41 82 57 52 44 34 29 27 14 4 4 4 5 2 5 7 11 13 15 14 14 13 12 13 12 11 11 11 11 10 7 5 3 359
327 317 321 355 352 291 265 223 48 51 89 24 37 49 49 54 39 22 11 8 5 6 8 6 10 13 16 18 20 19 18 17 16 16 16 15 15 15 16 14 13 12 13 15
Wind_Speed_850mb
13 11 10 13 14 16 15 15 15 20 25 29 34 37 56 55 49 43 35 28 29 21 14 18 12 4 4 4 3 18 35 37 37 40 43 43 44 42 41 37 34 35 29 33
6 8 12 16 13 16 14 15 20 17 18 9 45 26 47 55 49 39 45 34 26 14 13 15 8 1 4 11 17 26 35 42 46 51 52 49 45 41 38 33 27 24 29 25
9 6 10 14 16 12 7 5 10 9 6 6 22 34 35 37 32 25 37 25 20 17 8 3 10 15 22 26 30 34 38 43 47 53 56 55 54 55 54 52 50 44 38 28
7 7 19 9 12 11 9 4 18 16 12 32 41 55 49 43 38 34 32 27 20 10 2 10 16 22 29 35 41 48 53 58 63 68 69 69 66 65 64 61 57 54 55 54
9 9 11 13 7 11 9 6 11 24 20 38 56 53 31 29 28 24 16 13 7 9 16 21 27 34 43 51 54 52 51 51 51 56 64 66 65 58 54 55 54 57 58 58
4 9 17 13 34 47 10 9 16 35 20 29 24 9 4 28 21 17 9 5 13 17 18 27 38 45 51 51 48 50 56 61 62 62 59 59 60 59 58 56 54 53 53 53
16 18 13 10 19 31 21 15 26 42 35 28 13 20 32 20 20 16 15 9 3 14 23 28 35 38 46 49 47 51 55 55 54 53 56 58 59 64 62 63 61 59 53 49
6 12 26 18 14 21 18 38 42 44 45 45 43 39 36 28 21 15 11 4 8 14 19 26 35 38 39 46 50 52 53 53 57 64 64 65 67 65 61 56 55 55 53 50
15 11 10 24 29 39 68 67 52 47 36 37 37 32 23 20 13 12 13 18 22 29 34 34 32 35 40 44 48 47 48 57 63 64 59 55 57 60 59 57 56 56 54 49
4 5 6 29 36 62 67 60 46 38 34 23 29 19 14 8 8 12 21 30 34 39 40 35 33 35 39 45 47 53 60 63 60 59 58 57 57 53 53 54 55 54 51 50
5 10 12 18 23 27 49 42 42 31 23 24 16 12 7 3 7 14 21 28 33 38 36 33 32 36 39 42 49 53 54 52 54 57 56 58 55 52 50 49 47 50 51 52
6 6 9 28 43 34 38 44 38 34 29 18 11 10 6 1 6 13 20 26 34 35 25 25 31 38 41 42 45 46 51 52 53 54 54 55 57 63 58 55 49 45 45 47
13 14 11 28 37 38 36 29 25 22 13 14 16 10 3 4 9 16 24 30 34 25 23 27 35 41 39 38 41 45 50 52 51 51 53 55 55 59 69 64 57 50 43 36
38 44 35 36 38 27 19 15 21 14 15 21 14 9 8 11 15 22 27 34 26 22 22 32 39 41 43 43 44 45 48 49 51 54 55 55 55 56 58 63 66 63 53 46
40 28 33 44 37 27 25 17 23 35 25 19 12 13 15 17 20 23 27 23 21 22 30 36 41 44 51 49 45 49 49 49 50 54 56 57 56 56 57 59 63 67 65 56
41 33 55 45 41 38 34 31 34 28 17 16 17 19 19 20 21 19 18 21 21 27 32 43 40 42 50 50 48 51 46 46 48 53 56 59 60 61 62 63 65 65 64 60
39 59 57 50 43 35 32 26 22 18 17 20 19 18 17 18 15 19 19 22 20 28 34 42 38 43 47 47 49 49 50 51 51 52 57 60 63 64 65 67 67 64 61 57
54 45 37 35 37 33 30 28 30 27 25 24 18 17 16 16 19 19 19 22 26 33 36 44 41 43 50 52 52 47 49 52 54 59 60 65 67 63 63 65 65 62 61 58
43 43 41 38 35 38 42 46 40 34 26 26 22 24 23 18 17 17 18 25 30 34 47 51 53 48 53 54 57 47 47 54 59 60 62 68 66 64 64 61 60 58 55 53
45 43 40 35 33 40 43 35 31 29 30 31 29 31 32 33 26 20 22 27 32 24 44 45 51 56 59 58 62 54 53 57 59 62 66 72 68 68 66 60 56 54 51 50
37 33 30 26 23 23 20 21 23 21 20 26 31 34 40 42 43 41 39 39 40 32 38 47 55 65 63 60 63 57 57 61 63 66 71 73 71 70 66 62 57 55 53 50
25 22 17 11 7 6 7 6 13 18 18 21 28 31 32 34 37 40 43 43 40 41 43 48 56 68 60 66 62 57 60 62 67 69 73 70 71 69 65 60 57 55 52 48
17 13 10 4 5 2 5 6 7 20 20 13 18 20 22 28 35 41 48 53 51 41 41 47 57 65 60 69 62 59 61 63 69 74 71 72 71 67 62 58 57 54 51 48
12 7 6 13 7 9 10 3 8 21 16 8 9 15 26 28 31 34 39 44 48 49 44 49 62 57 60 66 60 60 62 64 72 76 72 74 74 68 62 59 58 56 52 48
2 5 6 10 10 8 3 6 12 15 10 7 12 19 21 22 26 30 35 39 45 54 48 50 60 56 60 61 59 61 63 66 75 82 76 77 79 76 68 63 61 59 56 49
10 9 7 10 18 15 10 12 3 13 9 14 14 16 18 21 25 28 26 33 44 56 48 55 57 56 59 61 62 64 66 69 77 86 82 78 82 81 74 67 67 67 61 51
13 13 16 11 23 12 5 5 6 11 6 8 14 15 16 22 22 24 29 36 46 53 48 52 55 56 59 65 65 67 69 73 75 84 89 83 84 85 78 70 70 70 63 51
Wind_Direction_850mb
213 203 227 228 228 205 192 206 173 227 224 239 211 209 206 197 194 185 194 198 199 189 218 191 210 166 144 137 189 291 299 295 297 293 294 301 304 304 305 308 303 299 300 308
249 228 244 254 243 239 234 221 231 267 269 326 258 203 162 187 195 195 203 194 223 247 153 160 153 190 310 299 296 293 296 291 292 293 294 297 294 299 302 301 301 301 288 277
245 249 314 287 216 214 231 240 170 170 200 132 83 102 138 180 165 174 217 195 143 149 174 268 312 313 305 307 303 295 292 297 299 298 296 295 297 296 294 296 294 291 288 290
211 114 247 229 212 197 211 229 117 92 105 105 111 110 109 120 126 126 136 141 136 136 278 307 307 309 310 303 301 301 301 300 300 299 299 299 298 294 293 294 293 290 285 283
169 207 298 290 253 155 147 159 148 128 138 125 117 106 84 117 128 129 122 93 50 340 322 314 309 311 314 313 312 313 313 311 311 310 310 308 308 308 306 300 297 292 287 283
119 184 217 211 234 252 110 208 179 140 140 150 162 92 180 120 109 95 77 10 328 314 310 313 318 316 314 313 314 315 317 316 314 311 311 313 312 312 309 310 308 305 297 292
203 233 274 246 148 154 171 217 165 141 138 122 101 126 131 109 94 92 86 84 341 297 306 312 316 319 318 318 319 320 319 318 320 319 318 317 314 310 310 308 307 303 303 301
164 219 249 204 165 167 170 137 139 125 118 110 113 120 116 108 105 106 109 63 347 334 329 324 320 322 322 323 323 322 320 320 320 317 316 315 310 305 308 306 304 304 308 306
184 218 257 284 243 163 152 136 127 120 118 122 113 109 102 96 81 56 15 346 337 331 326 325 326 328 331 329 323 322 320 317 315 314 314 315 312 310 306 303 301 302 302 299
305 286 103 84 112 133 132 126 125 125 125 132 119 112 100 80 36 347 333 326 324 324 327 330 335 334 330 325 327 324 320 316 318 321 323 325 321 315 309 308 306 303 300 294
302 9 63 92 100 119 114 118 116 117 124 121 126 110 101 61 325 328 327 327 329 330 326 332 333 328 330 328 326 326 327 333 334 331 327 325 324 321 314 307 302 299 294 290
208 167 153 142 136 142 127 120 125 123 113 106 111 137 150 117 338 331 331 330 328 329 352 343 336 332 323 323 328 333 337 336 335 334 332 326 325 325 325 322 316 304 293 283
160 128 80 116 125 133 124 113 118 115 113 146 143 152 92 5 348 337 331 329 335 359 352 339 334 329 328 333 336 339 332 332 333 332 334 334 330 326 324 327 329 332 327 313
143 141 140 146 143 132 115 98 116 136 150 142 123 76 39 359 342 337 339 340 354 1 343 336 333 333 340 340 335 331 331 337 338 336 333 329 329 329 328 324 322 324 330 330
159 158 156 142 127 116 110 132 127 124 119 104 65 23 2 357 351 347 341 359 4 352 340 334 333 336 334 334 326 324 325 328 333 333 332 329 329 326 327 328 326 323 323 322
152 120 127 122 120 116 114 116 117 108 87 57 36 21 6 352 341 338 11 10 5 350 336 338 339 333 333 340 342 340 339 335 333 331 331 331 331 327 325 324 321 319 317 316
116 112 114 109 110 105 103 99 86 75 58 43 26 6 350 344 354 24 18 10 3 346 335 331 338 339 337 346 345 343 343 339 337 336 338 337 333 328 324 321 320 317 311 309
130 122 115 116 111 103 91 78 64 56 55 41 26 14 3 9 35 22 11 359 350 347 5 11 1 355 354 352 348 344 342 340 341 339 335 335 333 328 325 322 319 315 311 309
117 118 118 113 108 94 84 70 64 58 56 36 36 33 30 34 31 20 12 357 353 21 28 18 11 358 354 353 351 345 341 343 343 342 341 340 335 332 329 323 319 314 312 311
118 116 113 108 101 80 79 71 71 66 57 40 38 41 41 31 24 23 7 3 1 11 24 8 7 4 360 353 350 349 351 345 344 343 342 343 340 336 334 329 324 319 315 312
123 118 112 101 91 79 78 65 52 59 60 45 41 47 44 41 43 42 34 26 17 10 357 359 1 359 359 351 348 351 353 349 349 348 346 345 343 341 338 335 330 326 321 316
125 135 133 106 99 75 58 46 18 28 39 37 33 39 38 38 41 37 29 21 15 6 355 355 358 356 356 351 352 352 353 352 352 351 350 351 348 344 342 338 334 331 327 321
132 119 134 325 0 123 354 344 2 8 8 12 16 24 32 30 27 25 23 20 14 3 356 356 354 353 355 354 356 357 357 357 356 356 357 357 354 351 346 343 341 338 334 328
126 116 93 45 27 290 315 315 39 10 337 358 3 25 30 23 19 19 20 18 10 7 359 357 353 354 357 357 360 2 2 2 2 2 2 1 1 359 357 353 349 346 341 335
134 314 19 14 351 9 317 182 31 355 5 75 41 35 33 24 21 21 17 11 5 4 2 358 357 1 4 5 7 8 8 8 9 9 7 6 5 6 6 2 359 355 351 348
332 324 351 5 1 346 336 208 324 22 41 82 57 52 44 34 29 27 14 4 4 4 5 2 5 7 11 13 15 14 14 13 12 13 12 11 11 11 11 10 7 5 3 359
327 317 321 355 352 291 265 223 48 51 89 24 37 49 49 54 39 22 11 8 5 6 8 6 10 13 16 18 20 19 18 17 16 16 16 15 15 15 16 14 13 12 13 15